Date/Time (UTC),PHv2,PWv2,PTv2,PSv3,PHv3,PWv3,PTv3,MESH,VIL,CompRef,Ref -20C,Flash Rate,Max Flash Density,LJA sigma-level,Max 0-2km AzShear,LLAZ 98th%,MLAZ 98th%,MUCAPE,MLCAPE,CAPE -10C to -30C,MLCIN,SRH 0-1km AGL,EBShear,MeanWind 0-1km AGL,Norm. Sat. Growth Rate,ICP,PWAT,WBZ,AvgBeamHgt,STP(eff),DCAPE,ESRH,LLLR,MLLR
2024/04/26 17:50,6,1,2,24,16,5,2,0.05,5,45.5,40,1,0.19,0,3,2,2,3107,2473,835,1,156,55,46,2.6,0,0.9,7.1,5.15,0,890,0,8.2,8.8
2024/04/26 17:52,13,3,2,42,32,10,9,0.28,10,51.0,48,12,0.34,0,3,3,2,3057,2402,832,1,164,54,46,2.6,0,0.9,7.3,5.17,0,880,0,8.2,8.7
2024/04/26 17:54,24,24,2,48,33,17,11,0.35,14,57.0,48,23,0.45,0,4,3,2,3057,2397,833,1,167,54,46,2.6,0,0.9,7.4,5.18,0,877,0,8.2,8.7
2024/04/26 17:56,45,36,3,56,36,18,11,0.52,19,58.0,50,26,0.55,0,5,3,2,3053,2392,832,1,171,54,46,2.6,0,0.9,7.5,5.23,0,872,0,8.2,8.7
2024/04/26 17:58,81,66,5,70,57,34,17,0.76,26,58.5,52,41,0.55,0,7,5,2,3052,2397,832,1,173,54,46,2.6,5,0.9,7.5,5.33,0,870,0,8.1,8.7
2024/04/26 18:00,86,85,6,81,72,38,30,0.85,33,59.5,56,41,0.55,0,7,5,5,3052,2392,832,1,176,54,46,2.6,5,0.9,7.6,5.33,0,869,0,8.1,8.7
2024/04/26 18:02,87,91,6,83,69,40,39,0.93,39,60.5,56,41,0.55,0.3,7,5,4,3599,2631,928,0,139,55,46,2.6,2,0.9,7.5,5.49,0,916,0,8.7,8.7
2024/04/26 18:04,92,92,6,88,81,44,40,1.12,45,63.0,58,41,0.55,0,7,5,4,3556,2611,926,0,144,55,46,2.6,22,0.9,7.5,5.55,0,914,0,8.7,8.7
2024/04/26 18:06,91,88,5,87,78,33,36,1.12,45,64.5,59,36,0.55,1.1,7,4,4,3520,2595,917,0,149,55,46,2.6,8,0.9,7.5,5.61,0,912,0,8.7,8.7
2024/04/26 18:08,91,88,6,88,75,35,36,1.12,45,64.5,58,38,0.55,0.2,5,4,3,3469,2559,905,0,156,56,46,2.6,40,0.9,7.6,5.71,0,910,0,8.7,8.6
2024/04/26 18:10,95,87,6,87,71,39,33,1.12,43,64.5,58,55,0.55,1.7,6,4,3,3376,2518,896,0,161,56,46,2.6,32,0.9,7.6,5.79,0,908,0,8.7,8.6
2024/04/26 18:12,95,89,6,88,75,45,37,1.13,41,64.0,60,55,0.55,0,7,4,5,3320,2509,888,0,165,56,46,2.6,30,0.9,7.6,5.85,0,905,0,8.7,8.6
2024/04/26 18:14,95,92,7,88,76,45,38,1.13,40,62.5,58,55,0.55,0,7,5,5,3271,2474,878,0,169,57,46,2.6,47,0.9,7.6,5.9,0,903,0,8.7,8.6
2024/04/26 18:16,95,92,7,88,77,47,42,1.13,40,62.5,58,55,0.55,0,7,5,5,3185,2435,870,0,175,57,46,2.6,46,1.0,7.7,6.0,0,899,0,8.7,8.6
2024/04/26 18:18,91,89,7,86,80,49,42,0.99,39,62.5,59,49,0.55,0.7,7,5,5,3169,2412,866,0,177,57,46,2.6,55,1.0,7.7,6.07,0,897,0,8.6,8.5
2024/04/26 18:20,89,91,7,85,77,42,40,0.99,39,62.0,58,41,0.55,0,7,5,4,3130,2386,863,0,180,58,46,2.6,50,1.0,7.7,6.14,0,895,0,8.6,8.5
2024/04/26 18:22,89,91,7,85,78,40,38,1.0,40,63.0,58,41,0.55,0,7,5,4,3110,2378,854,0,180,58,46,2.6,36,1.0,7.7,6.23,0,893,0,8.6,8.5
2024/04/26 18:24,90,91,7,85,73,40,36,1.02,40,63.0,58,41,0.55,1.1,7,5,4,3108,2372,854,0,180,58,46,2.6,50,1.0,7.7,6.24,0,893,0,8.5,8.5
2024/04/26 18:26,90,88,5,84,73,40,34,1.02,40,63.0,58,41,0.55,0,6,4,4,3080,2358,850,0,182,58,46,2.6,37,1.0,7.7,6.34,0,889,0,8.5,8.5
2024/04/26 18:28,92,83,4,84,76,34,31,1.13,40,63.0,59,41,0.52,-1,5,4,4,3064,2347,846,0,183,58,46,2.6,44,1.0,7.7,6.44,0,889,0,8.5,8.5
2024/04/26 18:30,92,87,5,85,74,40,34,1.13,40,62.0,58,41,0.52,-1,4,4,4,3029,2335,835,0,184,58,46,2.6,49,1.0,7.7,6.52,0,893,0,8.5,8.5
2024/04/26 18:32,92,87,5,84,79,36,35,1.13,40,63.0,59,39,0.52,0,4,4,5,3015,2324,832,0,185,58,46,2.6,47,1.0,7.7,6.56,0,894,0,8.5,8.5
2024/04/26 18:34,89,88,5,83,78,34,30,1.08,38,63.0,58,35,0.52,0.9,4,4,4,2992,2318,827,0,187,58,46,2.6,55,1.0,7.7,6.57,0,897,0,8.4,8.5
2024/04/26 18:36,88,88,6,84,79,29,39,1.08,40,63.0,57,31,0.58,0.0,6,4,5,2962,2306,825,0,184,58,47,2.6,51,1.0,7.8,6.57,0,897,0,8.4,8.5
2024/04/26 18:38,88,91,7,85,82,31,42,1.06,42,63.0,58,33,0.58,0.6,6,5,6,2960,2305,825,0,184,58,47,2.6,60,1.0,7.7,6.49,0,895,0,8.4,8.5
2024/04/26 18:40,92,89,8,83,77,30,40,1.06,42,61.0,56,43,0.65,3.0,6,5,6,2958,2286,819,0,184,58,47,2.6,59,1.0,7.7,6.29,0,895,0,8.4,8.5
2024/04/26 18:42,92,89,8,86,82,31,40,1.06,42,62.0,56,43,0.65,-2,6,5,6,2901,2271,814,0,186,57,47,2.6,49,1.0,7.7,6.11,0,894,0,8.3,8.5
2024/04/26 18:44,90,91,6,85,80,36,37,1.0,39,62.0,58,43,0.65,0.3,5,4,5,2901,2271,814,0,186,57,47,2.6,51,1.0,7.7,6.05,0,894,0,8.3,8.5
2024/04/26 18:46,90,88,7,85,79,35,37,1.0,39,62.0,56,43,0.65,-1,5,5,5,2838,2250,808,0,189,57,47,2.6,54,1.0,7.8,5.87,0,894,0,8.3,8.5
2024/04/26 18:48,89,91,6,84,75,32,33,1.06,41,60.5,58,35,0.65,1.3,5,5,5,2773,2215,797,0,191,57,47,2.6,56,1.0,7.8,5.65,0,894,0,8.2,8.5
2024/04/26 18:50,91,92,6,85,77,38,34,1.09,41,62.5,58,40,0.65,0.5,5,5,4,2759,2190,795,1,193,57,47,2.6,59,1.0,7.8,5.51,0,892,0,8.2,8.5
2024/04/26 18:52,92,92,7,85,79,32,34,1.09,41,63.0,58,40,0.65,0,7,4,5,2715,2171,787,1,195,57,47,2.6,33,1.1,7.8,5.37,0,891,0,8.2,8.5
2024/04/26 18:54,94,89,7,88,81,40,37,1.22,38,64.0,60,40,0.65,-1,7,4,5,2674,2136,783,1,197,57,48,2.6,46,1.1,7.8,5.18,0,883,0,8.1,8.5
2024/04/26 18:56,94,92,8,88,79,40,39,1.22,38,64.0,58,40,0.65,0.4,6,5,5,2672,2115,783,1,199,56,48,2.6,51,1.1,7.8,5.1,0,879,0,8.1,8.5
2024/04/26 18:58,94,92,11,89,73,37,39,1.22,38,64.5,56,39,0.65,0,7,6,6,2655,2082,774,1,204,55,48,2.6,52,1.1,7.8,4.81,0,870,0,8.0,8.5
2024/04/26 19:00,89,94,11,87,75,41,37,1.02,36,64.5,58,34,0.65,-1,7,6,6,2657,2075,776,1,206,55,48,2.6,51,1.1,7.8,4.71,0,865,0,8.0,8.5
2024/04/26 19:02,85,94,11,86,78,42,40,0.9,36,64.5,56,34,0.65,2.2,6,6,6,2503,2011,730,0,211,57,48,2.6,54,1.1,7.7,4.61,0,803,0,8.3,8.2
2024/04/26 19:04,85,92,11,86,77,37,41,0.9,37,63.0,56,36,0.65,0.4,7,6,6,2515,2011,732,0,210,56,48,2.6,51,1.1,7.7,4.37,0,806,0,8.2,8.2
2024/04/26 19:06,94,92,10,90,81,41,45,1.39,45,64.0,62,36,0.65,-1,7,6,5,2519,2009,732,0,209,55,48,2.6,52,1.1,7.7,4.28,0,805,0,8.2,8.2
2024/04/26 19:08,94,92,69,92,82,49,70,1.4,45,64.0,62,36,0.65,0.8,20,10,5,2538,2011,736,0,209,55,48,2.6,67,1.1,7.7,4.19,0,805,0,8.2,8.2
2024/04/26 19:10,94,95,87,93,84,51,70,1.4,45,66.5,59,36,0.65,0.2,20,10,10,2552,2011,738,0,209,55,48,2.6,64,1.1,7.7,4.04,0,805,0,8.2,8.2
2024/04/26 19:12,94,95,87,94,84,50,70,1.54,49,66.5,62,33,0.64,0,20,14,8,2591,2013,743,0,208,55,48,2.6,64,1.1,7.7,3.85,0,805,0,8.2,8.2
2024/04/26 19:14,95,95,87,94,83,50,70,1.62,52,66.5,62,33,0.64,0.2,20,14,8,2602,2015,745,0,209,55,48,2.6,69,1.1,7.7,3.77,0,805,0,8.2,8.2
2024/04/26 19:16,95,95,79,94,83,49,71,1.66,52,64.5,62,33,0.64,0.1,20,14,8,2608,2025,748,0,209,55,48,2.6,69,1.1,7.7,3.64,0,805,0,8.2,8.2
2024/04/26 19:18,96,95,68,94,88,50,67,1.81,55,64.5,61,34,0.64,0.8,14,10,8,2628,2034,751,0,210,55,48,2.6,73,1.1,7.7,3.5,0,803,0,8.2,8.2
2024/04/26 19:20,97,95,67,94,92,52,68,1.95,55,64.5,64,37,0.64,1.5,14,10,8,2644,2058,755,0,211,55,48,2.6,70,1.1,7.8,3.35,0,797,0,8.2,8.2
2024/04/26 19:22,97,95,70,95,92,53,67,1.95,55,68.5,64,37,0.64,0.2,14,10,8,2647,2064,759,0,213,55,48,2.6,68,1.1,7.8,3.24,0,795,0,8.2,8.2
2024/04/26 19:24,97,95,59,95,92,53,66,1.95,54,69.0,64,37,0.52,-5,15,9,8,2671,2088,763,0,215,55,48,2.6,68,1.1,7.8,3.13,0,792,0,8.2,8.2
2024/04/26 19:26,97,95,65,95,92,56,68,1.89,57,70.0,64,37,0.52,-1,15,9,8,2676,2103,769,0,220,55,48,2.6,67,1.1,7.8,2.97,0,791,0,8.2,8.3
2024/04/26 19:28,97,95,83,95,90,61,68,1.89,58,70.0,62,37,0.52,1.8,15,8,14,2691,2111,780,0,225,55,48,2.6,69,1.1,7.8,2.83,0,788,0,8.2,8.3
2024/04/26 19:30,97,95,82,95,91,61,67,1.89,59,70.0,61,39,0.52,1.5,17,8,14,2691,2117,781,0,226,55,48,2.6,70,1.1,7.8,2.78,0,788,0,8.2,8.3
2024/04/26 19:32,96,95,80,95,86,60,67,1.72,59,66.0,61,39,0.52,0,17,8,14,2709,2121,791,0,232,55,48,2.6,72,1.1,7.8,2.66,0,787,0,8.2,8.3
2024/04/26 19:34,96,95,83,95,86,60,67,1.68,59,66.0,60,39,0.52,0,12,8,11,2719,2146,798,0,238,55,48,2.6,68,1.1,7.8,2.51,0,785,0,8.1,8.3
2024/04/26 19:36,95,95,72,93,86,52,60,1.4,52,65.5,59,39,0.52,0,12,8,11,2719,2146,798,0,240,54,48,2.6,70,1.1,7.8,2.43,0,785,0,8.1,8.3
2024/04/26 19:38,93,95,71,93,84,50,59,1.28,53,64.5,58,35,0.52,0.4,12,8,12,2719,2159,799,0,246,54,48,2.6,76,1.1,7.8,2.28,0,783,0,8.0,8.3
2024/04/26 19:40,94,95,57,94,86,50,56,1.49,58,66.0,60,32,0.52,0,12,6,12,2721,2164,799,0,250,52,48,0,73,1.1,7.8,2.13,0,781,0,7.9,8.3
2024/04/26 19:42,94,95,55,94,86,53,55,1.49,59,66.0,59,32,0.49,-2,12,6,12,2719,2159,799,0,253,52,48,0,72,1.1,7.8,2.06,0,779,0,7.9,8.3
2024/04/26 19:44,94,95,55,94,85,50,54,1.49,59,66.0,58,32,0.49,1.4,12,6,7,2717,2150,797,0,255,51,48,0,73,1.1,7.8,1.92,0,776,0,7.8,8.3
2024/04/26 19:46,95,95,43,93,84,41,49,1.47,59,64.0,58,35,0.52,2.4,10,5,8,2712,2150,797,0,256,50,48,0,66,1.1,7.8,1.82,0,772,0,7.7,8.3
2024/04/26 19:48,94,97,34,92,84,44,52,1.36,55,64.0,58,39,0.61,0.8,12,6,7,2700,2147,796,1,257,49,48,0,74,1.2,7.8,1.76,0,772,0,7.7,8.3
2024/04/26 19:50,92,97,43,92,82,46,52,1.28,46,63.5,58,39,0.61,0,12,6,10,2670,2132,788,1,257,49,48,0,66,1.2,7.8,1.63,0,761,0,7.6,8.3
2024/04/26 19:52,95,95,75,93,84,52,59,1.36,48,62.0,59,45,0.61,1.5,15,8,15,2670,2131,788,1,258,49,48,0,68,1.2,7.8,1.59,0,761,0,7.5,8.3
2024/04/26 19:54,96,95,91,94,85,56,64,1.52,48,63.0,60,45,0.61,0,23,13,14,2663,2115,788,1,258,48,48,0,78,1.2,7.8,1.53,0,760,0,7.5,8.3
2024/04/26 19:56,97,95,91,95,90,62,63,1.87,49,69.0,62,45,0.61,0,23,13,14,2614,2083,777,2,258,48,48,0,77,1.2,7.8,1.43,0,748,0,7.4,8.3
2024/04/26 19:58,97,95,91,95,91,60,63,1.87,50,69.0,63,45,0.61,-1,23,13,14,2605,2059,777,2,259,48,48,0,76,1.2,7.8,1.36,0,748,0,7.4,8.3
2024/04/26 20:00,98,95,88,96,93,67,58,2.3,53,69.0,66,42,0.61,0,15,10,14,2467,1898,906,1,254,48,53,0,75,1.2,7.8,1.27,0,763,0,7.6,8.4
2024/04/26 20:02,98,95,89,96,93,64,58,2.3,53,69.5,66,42,0.61,0.4,15,10,11,2466,1897,904,2,252,48,53,0,68,1.2,7.8,1.17,0,763,0,7.6,8.4
2024/04/26 20:04,97,95,84,96,92,60,55,2.3,53,69.5,64,37,0.61,0,15,10,11,2466,1897,904,2,251,48,53,0,76,1.2,7.8,1.1,0,763,0,7.5,8.4
2024/04/26 20:06,97,95,88,96,90,61,60,2.11,53,69.5,62,38,0.61,1.4,16,12,11,2459,1891,899,2,251,47,53,0,79,1.3,7.8,1.02,0,763,0,7.5,8.4
2024/04/26 20:08,97,95,90,95,91,61,59,1.94,51,68.0,64,40,0.61,0.7,18,12,10,2448,1884,895,2,255,47,53,0,76,1.3,7.8,0.93,0,760,0,7.5,8.4
2024/04/26 20:10,97,95,90,95,89,64,58,1.76,52,68.0,62,40,0.61,-3,18,12,10,2445,1884,890,2,256,47,53,0,73,1.3,7.8,0.87,0,758,0,7.5,8.4
2024/04/26 20:12,95,95,88,95,84,63,58,1.65,52,68.0,62,40,0.61,0.4,18,12,10,2437,1877,890,2,256,48,53,0,73,1.3,7.8,0.82,0,755,0,7.4,8.4
2024/04/26 20:14,94,95,87,95,84,64,59,1.48,52,67.0,61,40,0.61,0.5,18,12,10,2420,1875,887,2,258,49,53,0,66,1.3,7.8,0.7,0,752,0,7.4,8.4
2024/04/26 20:16,93,97,91,95,84,60,59,1.48,51,66.5,59,39,0.61,0.6,18,12,12,2394,1868,886,2,256,48,53,0,59,1.2,7.8,0.67,0,753,0,7.4,8.4
2024/04/26 20:18,94,95,79,94,84,59,55,1.48,50,66.5,59,41,0.61,0.7,18,8,11,2401,1867,882,2,255,48,53,0,52,1.2,7.8,0.66,0,753,0,7.4,8.4
2024/04/26 20:20,93,97,77,94,83,62,55,1.37,50,66.0,58,41,0.4,-1,18,8,12,2375,1857,876,2,255,49,53,0,56,1.2,7.8,0.58,0,747,0,7.3,8.4
2024/04/26 20:22,91,97,71,94,83,63,54,1.3,50,66.0,58,41,0.4,0.9,16,7,9,2311,1838,869,2,248,50,53,0,55,1.2,7.8,0.47,0,743,0,7.3,8.4
2024/04/26 20:24,91,97,67,94,84,58,54,1.3,50,65.5,59,41,0.4,0,16,7,11,2308,1835,868,2,248,50,53,0,47,1.2,7.8,0.44,0,742,0,7.3,8.4
2024/04/26 20:26,90,97,67,93,80,57,55,1.3,51,65.5,59,38,0.4,0,16,8,11,2304,1814,867,2,247,50,53,0,47,1.2,7.8,0.4,0,740,0,7.2,8.4
2024/04/26 20:28,90,97,67,93,83,57,53,1.3,51,66.5,58,38,0.4,1.1,11,8,10,2239,1774,850,2,242,50,53,0,34,1.2,7.8,0.27,0,733,0,7.2,8.3
2024/04/26 20:30,90,97,67,94,81,61,53,1.3,51,66.5,58,38,0.4,0,10,8,10,2239,1785,851,2,246,50,53,0,31,1.2,7.8,0.27,0,733,0,7.2,8.3
2024/04/26 20:32,87,95,67,93,82,63,53,1.12,49,66.5,57,40,0.4,0.8,19,8,10,2221,1765,848,2,240,50,53,0,37,1.2,7.8,0.24,0,730,0,7.2,8.3
2024/04/26 20:34,89,97,76,93,80,60,54,1.12,49,66.5,56,43,0.4,1.5,21,10,9,2153,1710,829,1,237,49,53,0,18,1.2,7.8,0.15,0,727,0,7.2,8.3
2024/04/26 20:36,87,95,83,92,79,58,55,1.09,45,66.0,58,43,0.4,-1,26,11,8,2122,1707,827,1,237,49,53,0,20,1.2,7.8,0.15,0,727,0,7.1,8.3
2024/04/26 20:38,89,97,81,92,80,56,59,1.15,44,62.5,58,43,0.4,0.2,27,12,8,2115,1702,813,1,237,49,53,0,51,1.1,7.8,0.15,0,727,0,7.1,8.3
2024/04/26 20:40,90,97,79,92,78,57,58,1.18,41,62.5,58,43,0.4,0,27,12,8,2070,1666,802,1,237,48,52,0,49,1.1,7.8,0.15,0,719,0,7.1,8.3
2024/04/26 20:42,90,97,81,91,76,56,58,1.18,41,62.5,58,43,0.4,1.7,27,16,9,2070,1666,802,1,237,48,52,0,52,1.1,7.8,0.15,0,721,0,7.1,8.3
2024/04/26 20:44,93,97,81,92,79,58,58,1.31,45,61.5,58,43,0.4,-1,27,17,9,2032,1629,778,1,237,48,52,0,58,1.1,7.8,0.16,0,719,0,7.1,8.3
2024/04/26 20:46,94,97,79,93,73,60,56,1.46,45,64.0,61,43,0.4,0,30,18,9,1999,1591,764,1,238,47,52,0,59,1.1,7.8,0.19,0,717,0,7.1,8.3
2024/04/26 20:48,95,95,79,94,73,62,56,1.61,48,64.0,62,43,0.4,-1,30,18,8,1996,1584,752,1,238,47,52,0,75,1.1,7.8,0.21,0,717,0,7.1,8.3
2024/04/26 20:50,95,95,78,94,87,61,55,1.78,50,64.5,62,38,0.4,-1,30,18,7,1984,1557,734,1,239,46,52,0,77,1.1,7.8,0.25,0,714,0,7.1,8.3
2024/04/26 20:52,91,95,72,93,87,58,55,1.78,52,65.0,61,36,0.4,1.1,30,18,7,1957,1538,717,1,241,45,52,0,76,1.2,7.8,0.31,0,712,0,7.1,8.4
2024/04/26 20:54,90,95,90,94,88,55,56,1.78,53,66.5,61,33,0.4,-1,30,14,13,1957,1499,703,1,243,44,52,0,81,1.2,7.8,0.38,0,712,0,7.1,8.4
